Location: Newark
(10.9667°N, 4.8167°W)
Time: 22:51:57
(UTC+00:00)

Hubble Space Telescope - Pass Details

Date: 12 December 2019
Orbit: 536 x 540 km, 28.5° (Epoch: 26 January)

Event Time Altitude Azimuth Distance (km) Brightness Sun altitude
Exits shadow 03:56:49 11° 81° (E) 1,731 3.9 -35.4°
Drops below altitude 10° 03:56:58 10° 81° (E) 1,783 4.0 -35.4°
Sets 03:59:19 0° 73° (ENE) 2,673 5.0 -34.8°
